Time,TemperatureF,DewpointF,PressureIn,WindDirection,WindDirectionDegrees,WindSpeedMPH,WindSpeedGustMPH,Humidity,HourlyPrecipIn,Conditions,Clouds,dailyrainin,SoftwareType,DateUTC
2013-05-18 00:30:00,64.0,-99.9,-100.00,North,-999,-999.0,-999.0,-999,-99.99,,,0.46,,2013-05-18 06:30:00,
2013-05-18 01:12:00,64.0,-99.9,-100.00,North,-999,-999.0,-999.0,-999,-99.99,,,0.46,,2013-05-18 07:12:00,
2013-05-18 01:22:00,64.0,-99.9,-100.00,North,-999,-999.0,-999.0,-999,-99.99,,,0.46,,2013-05-18 07:22:00,
2013-05-18 01:30:00,64.0,-99.9,-100.00,North,-999,-999.0,-999.0,-999,0.00,,,0.41,,2013-05-18 07:30:00,
2013-05-18 02:11:00,64.0,-99.9,-100.00,North,-999,-999.0,-999.0,-999,0.00,,,0.41,,2013-05-18 08:11:00,
2013-05-18 02:22:00,64.0,-99.9,-100.00,North,-999,-999.0,-999.0,-999,0.00,,,0.41,,2013-05-18 08:22:00,
2013-05-18 03:12:00,64.0,-99.9,-100.00,North,-999,-999.0,-999.0,-999,0.00,,,0.27,,2013-05-18 09:12:00,
2013-05-18 03:22:00,64.0,-99.9,-100.00,North,-999,-999.0,-999.0,-999,0.00,,,0.27,,2013-05-18 09:22:00,
2013-05-18 04:12:00,63.0,-99.9,-100.00,North,-999,-999.0,-999.0,-999,-99.99,,,0.27,,2013-05-18 10:12:00,
2013-05-18 04:23:00,63.0,-99.9,-100.00,North,-999,-999.0,-999.0,-999,-99.99,,,0.27,,2013-05-18 10:23:00,
2013-05-18 05:12:00,61.0,-99.9,-100.00,North,-999,-999.0,-999.0,-999,-99.99,,,-99.99,,2013-05-18 11:12:00,
2013-05-18 05:22:00,61.0,-99.9,-100.00,North,-999,-999.0,-999.0,-999,-99.99,,,-99.99,,2013-05-18 11:22:00,
2013-05-18 06:12:00,63.0,-99.9,-100.00,North,-999,-999.0,-999.0,-999,-99.99,,,0.27,,2013-05-18 12:12:00,
2013-05-18 06:23:00,63.0,-99.9,-100.00,North,-999,-999.0,-999.0,-999,-99.99,,,0.27,,2013-05-18 12:23:00,
2013-05-18 06:30:00,62.0,-99.9,-100.00,North,-999,-999.0,-999.0,-999,-99.99,,,0.27,,2013-05-18 12:30:00,
2013-05-18 07:12:00,62.0,-99.9,-100.00,North,-999,-999.0,-999.0,-999,-99.99,,,0.27,,2013-05-18 13:12:00,
2013-05-18 07:22:00,62.0,-99.9,-100.00,North,-999,-999.0,-999.0,-999,-99.99,,,0.27,,2013-05-18 13:22:00,
2013-05-18 07:30:00,63.0,-99.9,-100.00,North,-999,-999.0,-999.0,-999,0.00,,,0.27,,2013-05-18 13:30:00,
2013-05-18 08:12:00,63.0,-99.9,-100.00,North,-999,-999.0,-999.0,-999,0.00,,,0.27,,2013-05-18 14:12:00,
2013-05-18 08:22:00,63.0,-99.9,-100.00,North,-999,-999.0,-999.0,-999,0.00,,,0.27,,2013-05-18 14:22:00,
2013-05-18 08:30:00,65.0,-99.9,-100.00,North,-999,-999.0,-999.0,-999,0.00,,,0.27,,2013-05-18 14:30:00,
2013-05-18 09:13:00,65.0,-99.9,-100.00,North,-999,-999.0,-999.0,-999,0.00,,,0.27,,2013-05-18 15:13:00,
2013-05-18 09:23:00,65.0,-99.9,-100.00,North,-999,-999.0,-999.0,-999,0.00,,,0.27,,2013-05-18 15:23:00,
2013-05-18 09:30:00,67.0,-99.9,-100.00,North,-999,-999.0,-999.0,-999,0.00,,,0.27,,2013-05-18 15:30:00,
2013-05-18 10:13:00,67.0,-99.9,-100.00,North,-999,-999.0,-999.0,-999,0.00,,,0.27,,2013-05-18 16:13:00,
2013-05-18 10:23:00,67.0,-99.9,-100.00,North,-999,-999.0,-999.0,-999,0.00,,,0.27,,2013-05-18 16:23:00,
2013-05-18 10:30:00,71.0,-99.9,-100.00,North,-999,-999.0,-999.0,-999,0.00,,,0.27,,2013-05-18 16:30:00,
2013-05-18 11:12:00,71.0,-99.9,-100.00,North,-999,-999.0,-999.0,-999,0.00,,,0.27,,2013-05-18 17:12:00,
2013-05-18 11:22:00,71.0,-99.9,-100.00,North,-999,-999.0,-999.0,-999,0.00,,,0.27,,2013-05-18 17:22:00,
2013-05-18 11:30:00,70.0,-99.9,-100.00,North,-999,-999.0,-999.0,-999,0.00,,,-99.99,,2013-05-18 17:30:00,
2013-05-18 12:12:00,70.0,-99.9,-100.00,North,-999,-999.0,-999.0,-999,0.00,,,-99.99,,2013-05-18 18:12:00,
2013-05-18 12:22:00,70.0,-99.9,-100.00,North,-999,-999.0,-999.0,-999,0.00,,,-99.99,,2013-05-18 18:22:00,
2013-05-18 12:30:00,71.0,-99.9,-100.00,North,-999,-999.0,-999.0,-999,0.00,,,-99.99,,2013-05-18 18:30:00,
2013-05-18 13:12:00,71.0,-99.9,-100.00,North,-999,-999.0,-999.0,-999,0.00,,,-99.99,,2013-05-18 19:12:00,
2013-05-18 13:22:00,71.0,-99.9,-100.00,North,-999,-999.0,-999.0,-999,0.00,,,-99.99,,2013-05-18 19:22:00,
2013-05-18 13:30:00,73.0,-99.9,-100.00,North,-999,-999.0,-999.0,-999,0.00,,,0.27,,2013-05-18 19:30:00,
2013-05-18 14:12:00,73.0,-99.9,-100.00,North,-999,-999.0,-999.0,-999,0.00,,,0.27,,2013-05-18 20:12:00,
2013-05-18 14:22:00,73.0,-99.9,-100.00,North,-999,-999.0,-999.0,-999,0.00,,,0.27,,2013-05-18 20:22:00,
2013-05-18 14:30:00,76.0,-99.9,-100.00,North,-999,-999.0,-999.0,-999,0.00,,,0.27,,2013-05-18 20:30:00,
2013-05-18 15:12:00,76.0,-99.9,-100.00,North,-999,-999.0,-999.0,-999,0.00,,,0.27,,2013-05-18 21:12:00,
2013-05-18 15:22:00,76.0,-99.9,-100.00,North,-999,-999.0,-999.0,-999,0.00,,,0.27,,2013-05-18 21:22:00,
2013-05-18 15:30:00,77.0,-99.9,-100.00,North,-999,-999.0,-999.0,-999,0.00,,,0.27,,2013-05-18 21:30:00,
2013-05-18 16:13:00,77.0,-99.9,-100.00,North,-999,-999.0,-999.0,-999,0.00,,,0.27,,2013-05-18 22:13:00,
2013-05-18 16:23:00,77.0,-99.9,-100.00,North,-999,-999.0,-999.0,-999,0.00,,,0.27,,2013-05-18 22:23:00,
2013-05-18 16:30:00,77.0,-99.9,-100.00,North,-999,-999.0,-999.0,-999,0.00,,,0.27,,2013-05-18 22:30:00,
2013-05-18 17:12:00,77.0,-99.9,-100.00,North,-999,-999.0,-999.0,-999,0.00,,,0.27,,2013-05-18 23:12:00,
2013-05-18 17:22:00,77.0,-99.9,-100.00,North,-999,-999.0,-999.0,-999,0.00,,,0.27,,2013-05-18 23:22:00,
2013-05-18 17:30:00,77.0,-99.9,-100.00,North,-999,-999.0,-999.0,-999,0.00,,,0.27,,2013-05-18 23:30:00,
2013-05-18 18:12:00,77.0,-99.9,-100.00,North,-999,-999.0,-999.0,-999,0.00,,,0.27,,2013-05-19 00:12:00,
2013-05-18 18:22:00,77.0,-99.9,-100.00,North,-999,-999.0,-999.0,-999,0.00,,,0.27,,2013-05-19 00:22:00,
2013-05-18 19:11:00,77.0,-99.9,-100.00,North,-999,-999.0,-999.0,-999,0.00,,,0.27,,2013-05-19 01:11:00,
2013-05-18 19:22:00,77.0,-99.9,-100.00,North,-999,-999.0,-999.0,-999,0.00,,,0.27,,2013-05-19 01:22:00,
2013-05-18 19:30:00,70.0,-99.9,-100.00,North,-999,-999.0,-999.0,-999,-99.99,,,0.27,,2013-05-19 01:30:00,
2013-05-18 20:11:00,70.0,-99.9,-100.00,North,-999,-999.0,-999.0,-999,-99.99,,,0.27,,2013-05-19 02:11:00,
2013-05-18 20:22:00,70.0,-99.9,-100.00,North,-999,-999.0,-999.0,-999,-99.99,,,0.27,,2013-05-19 02:22:00,
2013-05-18 20:30:00,67.0,-99.9,-100.00,North,-999,-999.0,-999.0,-999,-99.99,,,0.40,,2013-05-19 02:30:00,
2013-05-18 21:12:00,67.0,-99.9,-100.00,North,-999,-999.0,-999.0,-999,-99.99,,,0.40,,2013-05-19 03:12:00,
2013-05-18 21:22:00,67.0,-99.9,-100.00,North,-999,-999.0,-999.0,-999,-99.99,,,0.40,,2013-05-19 03:22:00,
2013-05-18 21:30:00,66.0,-99.9,-100.00,North,-999,-999.0,-999.0,-999,0.00,,,0.40,,2013-05-19 03:30:00,
2013-05-18 22:13:00,66.0,-99.9,-100.00,North,-999,-999.0,-999.0,-999,0.00,,,0.40,,2013-05-19 04:13:00,
2013-05-18 22:23:00,66.0,-99.9,-100.00,North,-999,-999.0,-999.0,-999,0.00,,,0.40,,2013-05-19 04:23:00,
2013-05-18 22:30:00,65.0,-99.9,-100.00,North,-999,-999.0,-999.0,-999,0.00,,,0.38,,2013-05-19 04:30:00,
2013-05-18 23:12:00,65.0,-99.9,-100.00,North,-999,-999.0,-999.0,-999,0.00,,,0.38,,2013-05-19 05:12:00,
2013-05-18 23:22:00,65.0,-99.9,-100.00,North,-999,-999.0,-999.0,-999,0.00,,,0.38,,2013-05-19 05:22:00,
2013-05-18 23:30:00,65.0,-99.9,-100.00,North,-999,-999.0,-999.0,-999,0.00,,,-99.99,,2013-05-19 05:30:00,